Radiation Dose at Monitoring Post of Fukushima Daini Nuclear Power Station
Date,Time,MP-1(microSv/h),MP-2(microSv/h),MP-3(microSv/h),MP-4(microSv/h),MP-5(microSv/h),MP-6(microSv/h),MP-7(microSv/h),Wind Direction,Wind Velocity(m/s),Rain
2022/09/28,00:00,0.150,0.136,0.220,0.211,0.214,0.119,0.077,north-northwest,3.5,No
2022/09/28,00:10,0.149,0.136,0.218,0.212,0.213,0.120,0.077,north-northwest,3.8,No
2022/09/28,00:20,0.150,0.136,0.219,0.211,0.215,0.119,0.077,north-northwest,3.8,No
2022/09/28,00:30,0.150,0.136,0.219,0.212,0.212,0.119,0.077,north-northwest,4.3,No
2022/09/28,00:40,0.151,0.136,0.221,0.210,0.215,0.119,0.077,north-northwest,4.3,No
2022/09/28,00:50,0.150,0.137,0.218,0.211,0.213,0.121,0.077,north-northwest,4.5,No
2022/09/28,01:00,0.150,0.136,0.220,0.212,0.215,0.120,0.077,north-northwest,4.7,No
2022/09/28,01:10,0.150,0.137,0.219,0.212,0.213,0.120,0.077,north-northwest,5.5,No
2022/09/28,01:20,0.150,0.136,0.220,0.210,0.215,0.119,0.078,north-northwest,5.4,No
2022/09/28,01:30,0.151,0.137,0.218,0.213,0.214,0.120,0.077,north-northwest,5.6,No
2022/09/28,01:40,0.151,0.136,0.220,0.212,0.214,0.119,0.077,north-northwest,5.5,No
2022/09/28,01:50,0.151,0.138,0.219,0.212,0.214,0.120,0.077,north-northwest,5.9,No
2022/09/28,02:00,0.150,0.136,0.220,0.210,0.214,0.120,0.077,north-northwest,5.5,No
2022/09/28,02:10,0.151,0.137,0.219,0.212,0.214,0.120,0.076,north-northwest,5.4,No
2022/09/28,02:20,0.149,0.136,0.220,0.211,0.214,0.120,0.077,north-northwest,5.4,No
2022/09/28,02:30,0.151,0.137,0.219,0.211,0.215,0.120,0.078,north-northwest,5.0,No
2022/09/28,02:40,0.149,0.136,0.221,0.210,0.213,0.120,0.076,north-northwest,5.0,No
2022/09/28,02:50,0.151,0.136,0.219,0.212,0.214,0.119,0.078,north-northwest,5.2,No
2022/09/28,03:00,0.150,0.136,0.221,0.211,0.212,0.120,0.076,north-northwest,5.9,No
2022/09/28,03:10,0.150,0.137,0.217,0.212,0.215,0.120,0.077,north-northwest,5.9,No
2022/09/28,03:20,0.149,0.137,0.220,0.211,0.212,0.120,0.077,northwest,6.3,No
2022/09/28,03:30,0.149,0.137,0.218,0.212,0.215,0.119,0.077,north-northwest,6.7,No
2022/09/28,03:40,0.150,0.137,0.220,0.210,0.212,0.120,0.076,northwest,6.9,No
2022/09/28,03:50,0.150,0.138,0.219,0.212,0.214,0.119,0.077,northwest,7.1,No
2022/09/28,04:00,0.150,0.136,0.220,0.209,0.213,0.120,0.076,north-northwest,7.4,No
2022/09/28,04:10,0.150,0.137,0.219,0.211,0.213,0.120,0.078,north-northwest,7.3,No
2022/09/28,04:20,0.151,0.136,0.220,0.211,0.214,0.120,0.077,north-northwest,7.8,No
2022/09/28,04:30,0.150,0.137,0.219,0.212,0.212,0.121,0.078,north-northwest,7.7,No
2022/09/28,04:40,0.150,0.136,0.220,0.210,0.214,0.120,0.076,northwest,8.1,No
2022/09/28,04:50,0.150,0.136,0.219,0.212,0.213,0.120,0.077,north-northwest,8.2,No
2022/09/28,05:00,0.150,0.136,0.219,0.210,0.215,0.120,0.076,north-northwest,7.8,No
2022/09/28,05:10,0.149,0.137,0.219,0.211,0.213,0.120,0.076,north-northwest,7.6,No
2022/09/28,05:20,0.151,0.136,0.220,0.211,0.215,0.119,0.077,north-northwest,7.3,No
2022/09/28,05:30,0.151,0.137,0.219,0.211,0.213,0.119,0.076,north-northwest,6.4,No
2022/09/28,05:40,0.151,0.136,0.220,0.211,0.214,0.120,0.076,north-northwest,6.3,No
2022/09/28,05:50,0.151,0.136,0.219,0.210,0.214,0.119,0.077,north-northwest,6.4,No
2022/09/28,06:00,0.150,0.137,0.220,0.212,0.214,0.119,0.077,north-northwest,6.6,No
2022/09/28,06:10,0.151,0.136,0.219,0.212,0.214,0.119,0.077,north-northwest,6.1,No
2022/09/28,06:20,0.149,0.136,0.220,0.212,0.214,0.119,0.076,north-northwest,6.2,No
2022/09/28,06:30,0.151,0.137,0.219,0.210,0.213,0.119,0.077,north-northwest,5.5,No
2022/09/28,06:40,0.150,0.136,0.220,0.211,0.213,0.119,0.077,north-northwest,6.2,No
2022/09/28,06:50,0.150,0.137,0.219,0.211,0.215,0.120,0.077,north-northwest,6.4,Yes
2022/09/28,07:00,0.151,0.136,0.221,0.214,0.213,0.120,0.077,north-northwest,7.1,Yes
2022/09/28,07:10,0.151,0.137,0.219,0.211,0.215,0.120,0.077,north-northwest,6.4,Yes
2022/09/28,07:20,0.152,0.138,0.220,0.212,0.213,0.119,0.077,north-northwest,7.0,Yes
2022/09/28,07:30,0.150,0.138,0.220,0.211,0.215,0.120,0.076,north-northwest,7.4,Yes
2022/09/28,07:40,0.152,0.138,0.221,0.212,0.214,0.120,0.078,north-northwest,7.2,Yes
2022/09/28,07:50,0.151,0.137,0.219,0.211,0.215,0.121,0.077,north-northwest,7.2,No
2022/09/28,08:00,0.151,0.138,0.220,0.212,0.215,0.120,0.078,north-northwest,6.6,No
2022/09/28,08:10,0.150,0.137,0.219,0.212,0.212,0.119,0.077,north-northwest,6.2,No
2022/09/28,08:20,0.151,0.137,0.218,0.210,0.215,0.120,0.077,north-northwest,7.3,No
2022/09/28,08:30,0.151,0.137,0.220,0.212,0.215,0.119,0.076,north-northwest,6.1,No
2022/09/28,08:40,0.149,0.136,0.219,0.212,0.211,0.120,0.078,north-northwest,6.7,No
2022/09/28,08:50,0.151,0.137,0.217,0.209,0.214,0.120,0.078,north-northwest,5.5,No
2022/09/28,09:00,0.151,0.137,0.219,0.212,0.215,0.120,0.077,north-northwest,5.6,No
2022/09/28,09:10,0.149,0.138,0.220,0.212,0.211,0.119,0.078,north-northwest,5.1,No
2022/09/28,09:20,0.150,0.138,0.218,0.210,0.213,0.120,0.078,north,5.2,No
2022/09/28,09:30,0.150,0.136,0.221,0.210,0.215,0.119,0.077,north,5.9,No
2022/09/28,09:40,0.149,0.136,0.220,0.212,0.213,0.118,0.077,north,5.2,No
2022/09/28,09:50,0.151,0.137,0.217,0.210,0.211,0.119,0.077,north,6.2,No
2022/09/28,10:00,0.150,0.137,0.218,0.209,0.210,0.119,0.076,north-northwest,5.4,No
2022/09/28,10:10,0.150,0.135,0.221,0.208,0.214,0.120,0.076,north,6.3,No
2022/09/28,10:20,0.148,0.136,0.219,0.212,0.215,0.120,0.076,north,7.1,No
2022/09/28,10:30,0.150,0.137,0.219,0.212,0.214,0.120,0.077,north,7.3,No
2022/09/28,10:40,0.151,0.136,0.217,0.211,0.212,0.119,0.077,north,7.4,No
2022/09/28,10:50,0.151,0.136,0.219,0.209,0.210,0.119,0.077,north,8.3,No
2022/09/28,11:00,0.148,0.135,0.221,0.209,0.211,0.120,0.077,north,6.6,No
2022/09/28,11:10,0.150,0.135,0.220,0.209,0.212,0.120,0.077,north,5.2,No
2022/09/28,11:20,0.151,0.136,0.218,0.210,0.212,0.120,0.077,north,7.0,No
2022/09/28,11:30,0.151,0.137,0.217,0.213,0.212,0.120,0.077,north,6.1,No
2022/09/28,11:40,0.151,0.137,0.218,0.213,0.215,0.120,0.077,north,7.3,No
2022/09/28,11:50,0.150,0.138,0.219,0.211,0.216,0.121,0.077,north,6.3,No
2022/09/28,12:00,0.149,0.137,0.220,0.210,0.215,0.119,0.077,north,4.3,No
2022/09/28,12:10,0.148,0.136,0.221,0.210,0.214,0.120,0.077,north,7.9,No
2022/09/28,12:20,0.149,0.136,0.218,0.210,0.213,0.120,0.078,north,6.3,No
2022/09/28,12:30,0.152,0.137,0.219,0.210,0.212,0.120,0.076,north,8.2,No
2022/09/28,12:40,0.151,0.136,0.219,0.212,0.212,0.119,0.076,north,6.8,No
2022/09/28,12:50,0.150,0.137,0.219,0.213,0.212,0.119,0.076,north,6.9,No
2022/09/28,13:00,0.148,0.137,0.222,0.212,0.211,0.120,0.077,north,6.4,No
2022/09/28,13:10,0.150,0.137,0.220,0.211,0.211,0.119,0.076,north,5.8,No
2022/09/28,13:20,0.152,0.135,0.219,0.211,0.212,0.120,0.077,north,5.9,No
2022/09/28,13:30,0.151,0.135,0.220,0.210,0.213,0.120,0.076,north,5.3,No
2022/09/28,13:40,0.151,0.135,0.217,0.210,0.214,0.120,0.077,north,6.4,No
2022/09/28,13:50,0.149,0.136,0.218,0.212,0.212,0.120,0.077,north,6.6,No
2022/09/28,14:00,0.150,0.138,0.221,0.212,0.213,0.119,0.077,north,6.3,No
2022/09/28,14:10,0.153,0.137,0.221,0.212,0.217,0.121,0.077,north,5.0,No
2022/09/28,14:20,0.150,0.136,0.219,0.211,0.215,0.120,0.077,north,6.1,No
2022/09/28,14:30,0.150,0.137,0.219,0.210,0.214,0.120,0.077,north,6.3,No
2022/09/28,14:40,0.150,0.136,0.219,0.210,0.214,0.120,0.076,north,7.0,No
2022/09/28,14:50,0.151,0.138,0.221,0.213,0.211,0.120,0.077,north,6.9,No
2022/09/28,15:00,0.151,0.137,0.220,0.213,0.214,0.120,0.077,north,7.5,No
2022/09/28,15:10,0.151,0.137,0.218,0.211,0.215,0.120,0.076,north,5.6,No
2022/09/28,15:20,0.149,0.138,0.221,0.213,0.214,0.120,0.078,north,6.3,No
2022/09/28,15:30,0.152,0.136,0.219,0.213,0.213,0.121,0.077,north,6.7,No
2022/09/28,15:40,0.150,0.137,0.222,0.211,0.215,0.120,0.076,north,6.8,No
2022/09/28,15:50,0.150,0.138,0.222,0.214,0.215,0.120,0.077,north,5.2,No
2022/09/28,16:00,0.152,0.136,0.220,0.213,0.213,0.119,0.077,north,5.4,No
2022/09/28,16:10,0.152,0.137,0.221,0.212,0.216,0.120,0.076,north,5.7,No
2022/09/28,16:20,0.151,0.138,0.220,0.213,0.214,0.120,0.077,north,4.9,No
2022/09/28,16:30,0.153,0.137,0.221,0.212,0.213,0.119,0.077,north-northwest,6.0,No
2022/09/28,16:40,0.151,0.138,0.221,0.213,0.216,0.120,0.076,north-northwest,5.8,No
2022/09/28,16:50,0.151,0.136,0.220,0.214,0.214,0.119,0.077,north-northwest,5.8,No
2022/09/28,17:00,0.151,0.137,0.221,0.211,0.212,0.120,0.076,north-northwest,5.0,No
2022/09/28,17:10,0.151,0.137,0.220,0.213,0.216,0.120,0.077,north-northwest,5.3,No
2022/09/28,17:20,0.152,0.137,0.221,0.212,0.214,0.119,0.077,north-northwest,5.8,No
2022/09/28,17:30,0.150,0.136,0.220,0.212,0.214,0.120,0.077,north-northwest,5.4,No
2022/09/28,17:40,0.151,0.137,0.220,0.214,0.215,0.120,0.077,north-northwest,6.2,No
2022/09/28,17:50,0.152,0.137,0.221,0.211,0.213,0.120,0.077,north-northwest,4.6,No
2022/09/28,18:00,0.150,0.137,0.220,0.214,0.216,0.120,0.078,northwest,4.6,No
2022/09/28,18:10,0.151,0.136,0.222,0.211,0.214,0.120,0.077,north-northwest,4.6,No
2022/09/28,18:20,0.152,0.138,0.220,0.213,0.214,0.120,0.077,north-northwest,5.2,No
2022/09/28,18:30,0.150,0.137,0.222,0.212,0.215,0.120,0.077,northwest,5.2,No
2022/09/28,18:40,0.153,0.138,0.221,0.211,0.214,0.120,0.077,northwest,5.3,No
2022/09/28,18:50,0.151,0.137,0.221,0.213,0.215,0.121,0.077,north-northwest,4.8,No
2022/09/28,19:00,0.151,0.138,0.222,0.213,0.214,0.120,0.077,north-northwest,4.6,No
2022/09/28,19:10,0.151,0.136,0.221,0.213,0.215,0.120,0.077,northwest,4.4,No
2022/09/28,19:20,0.151,0.138,0.221,0.212,0.214,0.120,0.077,northwest,4.0,No
2022/09/28,19:30,0.152,0.137,0.222,0.214,0.217,0.121,0.077,northwest,4.1,No
2022/09/28,19:40,0.151,0.138,0.221,0.213,0.214,0.121,0.077,north-northwest,4.0,No
2022/09/28,19:50,0.153,0.137,0.222,0.214,0.214,0.121,0.078,northwest,4.0,No
2022/09/28,20:00,0.151,0.137,0.221,0.213,0.215,0.120,0.077,northwest,3.5,No
2022/09/28,20:10,0.152,0.136,0.223,0.214,0.215,0.121,0.077,north,3.5,No
2022/09/28,20:20,0.152,0.138,0.221,0.213,0.214,0.120,0.077,north-northwest,3.5,No
2022/09/28,20:30,0.152,0.136,0.223,0.212,0.214,0.120,0.077,north-northwest,3.2,No
2022/09/28,20:40,0.151,0.137,0.221,0.213,0.216,0.121,0.076,north-northwest,3.0,No
2022/09/28,20:50,0.152,0.138,0.222,0.213,0.213,0.120,0.077,north-northwest,3.3,No
2022/09/28,21:00,0.151,0.137,0.220,0.213,0.215,0.121,0.077,north-northwest,2.7,No
2022/09/28,21:10,0.152,0.137,0.222,0.213,0.214,0.120,0.077,north-northwest,1.8,No
2022/09/28,21:20,0.151,0.137,0.221,0.213,0.216,0.120,0.077,west-northwest,2.2,No
2022/09/28,21:30,0.151,0.136,0.221,0.212,0.214,0.120,0.078,north,1.8,No
2022/09/28,21:40,0.152,0.137,0.221,0.214,0.215,0.120,0.077,northwest,2.1,No
2022/09/28,21:50,0.151,0.137,0.221,0.212,0.214,0.120,0.077,north-northwest,2.8,No
2022/09/28,22:00,0.151,0.137,0.223,0.213,0.216,0.120,0.077,north-northwest,2.4,No
2022/09/28,22:10,0.151,0.138,0.221,0.212,0.214,0.121,0.077,northwest,2.6,No
2022/09/28,22:20,0.151,0.137,0.222,0.213,0.215,0.119,0.077,northwest,3.2,No
2022/09/28,22:30,0.153,0.138,0.221,0.213,0.215,0.120,0.077,northwest,3.2,No
2022/09/28,22:40,0.151,0.137,0.220,0.213,0.215,0.120,0.078,northwest,2.8,No
2022/09/28,22:50,0.152,0.137,0.223,0.213,0.215,0.121,0.077,northwest,2.8,No
2022/09/28,23:00,0.152,0.138,0.220,0.213,0.213,0.120,0.078,northwest,3.7,No
2022/09/28,23:10,0.151,0.137,0.221,0.213,0.214,0.121,0.078,northwest,4.2,No
2022/09/28,23:20,0.151,0.138,0.221,0.213,0.215,0.121,0.078,northwest,4.7,No
2022/09/28,23:30,0.151,0.138,0.222,0.213,0.215,0.120,0.077,northwest,4.7,No
2022/09/28,23:40,0.152,0.137,0.222,0.213,0.214,0.119,0.077,west-northwest,4.4,No
2022/09/28,23:50,0.151,0.138,0.220,0.212,0.215,0.121,0.077,west-northwest,4.2,No
